sat.trackr.live / text

‹ back to catalog

STARLINK-5881

NORAD 57054 · 2023-088G

PAYLOAD ACTIVE UNKNOWN

§ Identity

Operator
Country
US
Launch date
2023-06-22
Launch site
AFWTR
Launch vehicle
Mass (kg)
RCS (m²)

Purposes: comms

External: N2YO · Heavens-Above · Gunter

§ Orbital elements

Epoch: 2026-05-24T23:36:38.183328Z

Period
94.27 min
Inclination
43.0042°
Eccentricity
0.0001298
Mean motion
15.27584291 rev/d
Perigee alt
482.1 km
Apogee alt
483.9 km
Semi-major
6,861.2 km
B*
6.6754e-6
RAAN
39.5292°
Arg perigee
251.4637°
Mean anomaly
108.6074°
Rev number
16,200

§ Raw data

STARLINK-58811 57054U 23088G   26144.98377527 -.00000078  00000+0  66754-5 0  99952 57054  43.0042  39.5292 0001298 251.4637 108.6074 15.27584291162003

JSON: /api/v1/satellites/57054 · /tle

For live sub-satellite position, see the globe view (requires WebGL).

§ Visibility from observer

Set your observer location to see the next 7 days of passes ≥ 10°. The values pass through the URL so the page stays shareable.

No JS? Fill the form by hand. The geolocation button needs JavaScript.